Location: *
(45.9500°N, 9.0833°E)
Time: 21:06:05
(UTC+00:00)

SME Rocket - Pass Details

Date: 03 March 2021
Orbit: 550 x 2652 km, 99.9° (Epoch: 20 April)

Event Time Altitude Azimuth Distance (km) Brightness Sun altitude
Rises 19:06:44 0° 15° (NNE) 4,998 7.7 -20.4°
Reaches altitude 10° 19:10:17 10° 17° (NNE) 3,686 6.9 -21.0°
Maximum altitude 19:18:30 77° 103° (ESE) 1,093 4.0 -22.4°
Drops below altitude 10° 19:23:46 10° 190° (S) 2,401 6.0 -23.3°
Sets 19:25:41 0° 192° (SSW) 3,166 6.7 -23.6°
